Regional Weather Roundup
Issued by NWS

Home | Current Version | Previous Version | Graphics & Text | Print | Product List | Glossary On
Versions: 1 2 3 4 5 6 7 8 9 10 11 12 13 14 15 16 17 18 19 20 21 22 23 24 25 26 27 28 29 30 31 32 33 34 35 36 37 38 39 40 41 42 43 44 45 46 47 48 49 50
222
ASUS43 KLOT 270904
RWRIL

ILLINOIS REGIONAL WEATHER ROUNDUP
NATIONAL WEATHER SERVICE CHICAGO/ROMEOVILLE IL
400 AM CDT WED JUL 27 2016

NOTE: "FAIR" INDICATES FEW OR NO CLOUDS BELOW 12,000 FEET WITH NO
SIGNIFICANT WEATHER AND/OR OBSTRUCTIONS TO VISIBILITY.

* THESE STATIONS ARE NOT UNDER NWS QUALITY CONTROL. THEY ALSO MAY NOT
  REPORT WEATHER SUCH AS PRECIPITATION OR FOG.

ILZ001-002-007-009-015-016-024-271000-
NORTHWEST ILLINOIS

CITY           SKY/WX    TMP DP  RH WIND       PRES   REMARKS
MOLINE         CLOUDY    67  64  90 CALM      30.00R
STERLING*      CLEAR     68  68 100 CALM      30.01S
SAVANNA*       CLEAR     65  64  98 CALM      30.00S FOG
$$

ILZ003-004-008-010-011-017-018-271000-
NORTH CENTRAL ILLINOIS

CITY           SKY/WX    TMP DP  RH WIND       PRES   REMARKS
ROCKFORD       CLEAR     68  64  87 CALM      30.02S
FREEPORT*      CLEAR     62  60  94 CALM      30.03S
ROCHELLE*      CLEAR     62  62  99 CALM      30.01F
DE KALB*       CLEAR     66  64  93 CALM      30.02S
$$

ILZ005-006-012>014-019>023-271000-
NORTHEAST ILLINOIS

CITY           SKY/WX    TMP DP  RH WIND       PRES   REMARKS
CHICAGO-OHARE  CLEAR     70  63  78 CALM      29.99S
CHICAGO-MIDWAY CLEAR     73  65  75 SW3       29.99S
AURORA         CLEAR     66  63  90 CALM      30.01S
LANSING*       CLEAR     67  62  83 CALM      30.01R
WAUKEGAN       CLEAR     69  65  86 CALM      30.00R
DUPAGE AIRPORT CLEAR     68  63  84 CALM      30.00S
KANKAKEE*      CLEAR     68  66  93 CALM      30.02R
WHEELING       CLEAR     68  65  90 N6        30.01R
MORRIS*        PTCLDY    68  66  94 CALM      29.99S
NORTHERLY ISL    N/A     73  63  70 W1          N/A
$$

LMZ740>746-271000-
SOUTHERN LAKE MICHIGAN

STATION/POSITION SKY/WX   TEMP    WIND        PRES    VSBY  WAVE
                          AIR SEA DIR/SP/G                  HT/PER
                          (F)     (DEG/KT/KT) (MB)    (MI)  (FT/S)
SOUTHERN BUOY              75 76  190/  4/  6 1014.8          0
WILMETTE HARBOR            71 71     CALM       N/A           0
HARRISON CRIB              78     200/  6/  6   N/A
BURNHAM HARBOR             74      CALM  /  4   N/A
CALUMET HARBOR             73      CALM  /  2 1015.1S
BURNS HARBOR               71     190/  3/  6 1016.3S
MICHIGAN CITY              72     140/  5/  5   N/A
MICHIGAN CITY 6N           75 76  210/  4/  6   N/A           0
ST. JOSEPH                 75 78  190/  2/  2 1015.1F         0
$$

ILZ025>027-034>036-040-047-049-050-058-095>099-271000-
WEST-CENTRAL ILLINOIS

CITY           SKY/WX    TMP DP  RH WIND       PRES   REMARKS
QUINCY         PTCLDY    72  69  90 SE3       29.99R
GALESBURG*     CLEAR     65  64  97 CALM      30.01R
MACOMB*        CLEAR     67  66  98 CALM      30.02R
JACKSONVILLE*  PTCLDY    71  68  90 SE3       29.98S
PITTSFIELD*    PTCLDY    71  71  98 CALM      30.00R
$$

ILZ028>032-037-038-041>044-048-051>054-059>061-271000-
CENTRAL ILLINOIS

CITY           SKY/WX    TMP DP  RH WIND       PRES   REMARKS
BLOOMINGTON    CLEAR     70  68  93 CALM      30.01S
DECATUR        CLEAR     67  64  90 CALM      30.00S
PEORIA         CLEAR     70  69  97 CALM      30.00R
LACON*         CLEAR     68  66  94 CALM      30.00R
LINCOLN*       CLEAR     66  66 100 CALM      29.99S
SPRINGFIELD    CLEAR     72  68  87 SE5       29.99S
TAYLORVILLE    PTCLDY    70  68  93 MISG      29.99F
$$

ILZ033-039-045-046-055>057-062-063-271000-
EAST-CENTRAL ILLINOIS

CITY           SKY/WX    TMP DP  RH WIND       PRES   REMARKS
CHAMPAIGN      CLEAR     66  64  93 E3        30.00S
RANTOUL*       CLEAR     70  68  94 CALM      30.00S
MATTOON        CLOUDY    69  65  86 CALM      29.99S
PARIS*         CLEAR     64  64 100 CALM      30.01S
$$

ILZ079-100>102-271000-
SOUTHWEST ILLINOIS

CITY           SKY/WX    TMP DP  RH WIND       PRES   REMARKS
ALTON          FOG       74  73  99 CALM      29.98R VSB 1/2
BELLEVILLE     MOCLDY    74  74 100 S2        29.97R
CAHOKIA*       CLOUDY    75  73  93 S3        29.97R
SPARTA*        CLOUDY    73  73  99 S3        29.99S FOG
$$

ILZ064>066-069>071-074>076-080>082-084>086-088>090-092>094-271000-
SOUTH-CENTRAL ILLINOIS

CITY           SKY/WX    TMP DP  RH WIND       PRES   REMARKS
CARBONDALE     FOG       74  72  93 CALM      29.98R VSB 1/2
CAIRO*         PTCLDY    73  73  99 CALM      29.96S
EFFINGHAM*     PTCLDY    71  71 100 CALM      30.01S
MARION         FOG       73  73 100 CALM      29.99R VSB 1
MT. VERNON     PTCLDY    73  68  83 MISG      29.97S
CENTRALIA*     CLOUDY    74  74 100 CALM      29.97S FOG
SALEM*         CLOUDY    75  74  95 CALM      29.98S
METROPOLIS*    CLOUDY    73  73  98 CALM      29.97F FOG
$$

ILZ067-068-072-073-078-083-087-091-271000-
SOUTHEAST ILLINOIS

CITY           SKY/WX    TMP DP  RH WIND       PRES   REMARKS
LAWRENCEVILLE  PTCLDY    74  73  97 N3        29.98S
FLORA*         CLOUDY    74  73  97 N3        29.98S FOG
FAIRFIELD*     MOCLDY    74  74  99 CALM      29.97R
HARRISBURG*    CLOUDY    72  72 100 CALM      29.98S FOG
ROBINSON*      PTCLDY    69  69 100 CALM      30.00R FOG
CARMI*         CLOUDY    72  72 100 CALM      29.97S FOG
$$

ABBREVIATIONS USED IN REMARKS
   TC - TEMPERATURE IN CELSIUS
  WCI - WIND CHILL INDEX
   HX - HEAT INDEX
  VSB - VISIBILITY
$$





USA.gov is the U.S. government's official web portal to all federal, state and local government web resources and services.